[Iaude] MPEC V79: 2016 VV2 [a=2.50,e=0.60,i=5.5,H=24.6]

mpec at si.edu mpec at si.edu
Tue Nov 8 23:56:19 EST 2016


M.P.E.C. 2016-V79                                Issued 2016 Nov.  9, 04:50 UT
 
     The Minor Planet Electronic Circulars contain information on unusual
         minor planets and routine data on comets.  They are published
    on behalf of Division F of the International Astronomical Union by the
          Minor Planet Center, Smithsonian Astrophysical Observatory,
                          Cambridge, MA 02138, U.S.A.

             Prepared using the Tamkin Foundation Computer Network

                              MPC at CFA.HARVARD.EDU
            URL http://www.minorplanetcenter.net/    ISSN 1523-6714


                                   2016 VV2
 
Observations:
     K16V02V* C2016 11 07.10328 22 54 59.76 +11 36 08.1          20.5 VqEV079G96
     K16V02V  C2016 11 07.10757 22 54 58.96 +11 36 50.9          21.0 VqEV079G96
     K16V02V  C2016 11 07.11191 22 54 58.09 +11 37 32.9          21.0 VqEV079G96
     K16V02V  C2016 11 07.11626 22 54 57.34 +11 38 16.5          20.9 VqEV079G96
     K16V02V  C2016 11 07.14446 22 54 51.66 +11 42 56.6          20.5 RoEV079926
     K16V02V  C2016 11 07.14802 22 54 50.94 +11 43 32.5          20.4 RoEV079926
     K16V02V  C2016 11 07.15158 22 54 50.25 +11 44 07.4          20.7 RoEV079926
     K16V02V  C2016 11 07.17986 22 54 44.66 +11 48 43.8          20.8 VqEV079G96
     K16V02V  C2016 11 07.18062 22 54 44.52 +11 48 51.2          20.8 VqEV079G96
     K16V02V  C2016 11 07.18141 22 54 44.33 +11 49 01.3          20.6 VqEV079G96
     K16V02V  C2016 11 07.18217 22 54 44.24 +11 49 06.7          20.9 VqEV079G96
     K16V02V  C2016 11 08.09631 22 52 25.94 +14 28 15.9          20.2 RoEV079926
     K16V02V  C2016 11 08.09957 22 52 25.25 +14 28 51.6          20.1 RoEV079926
     K16V02V  C2016 11 08.10285 22 52 24.55 +14 29 28.0          20.0 RoEV079926
     K16V02V  C2016 11 08.10684 22 52 23.66 +14 30 09.3          20.3 VqEV079G96
     K16V02V  C2016 11 08.10760 22 52 23.47 +14 30 17.5          20.3 VqEV079G96
     K16V02V  C2016 11 08.11004 22 52 23.00 +14 30 44.4          20.3 VqEV079G96
     K16V02V  C2016 11 09.08888122 49 35.14 +17 40 06.5          19.9 VtEV079H01
     K16V02V  C2016 11 09.09511922 49 33.64 +17 41 23.4          20.7 VtEV079H01
     K16V02V  C2016 11 09.10469022 49 31.37 +17 43 20.8          20.4 VtEV079H01
     K16V02V  C2016 11 09.11185922 49 29.68 +17 44 49.1          20.3 VtEV079H01
 
Observer details:
926 Tenagra II Observatory.  Observers M. Schwartz, P. R. Holvorcem.  Measurer
    M. Schwartz.  0.81-m f/7 Ritchey-Chretien + CCD.
G96 Mt. Lemmon Survey.  Observer R. A. Kowalski.  Measurers E. J. Christensen,
    D. C. Fuls, A. R. Gibbs, A. D. Grauer, J. A. Johnson, R. A. Kowalski,
    S. M. Larson, G. J. Leonard, R. G. Matheny, R. L. Seaman, F. C. Shelly.
    1.5-m reflector + 10K CCD.
H01 Magdalena Ridge Observatory, Socorro.  Observers W. H. Ryan, E. V. Ryan.
    Measurer W. H. Ryan.  2.4-m f/8.9 reflector + CCD.
 
Orbital elements:
2016 VV2                                                 Earth MOID = 0.0359 AU
Epoch 2016 July 31.0 TT = JDT 2457600.5                 MPC
M 330.68484              (2000.0)            P               Q
n   0.24894673     Peri.   34.01515     +0.42374557     -0.90444819
a   2.5026403      Node    30.99663     +0.80836866     +0.35315022
e   0.6015845      Incl.    5.47369     +0.40863161     +0.23928727
P   3.96           H   24.6           G   0.15           U   6
Residuals in seconds of arc
161107 G96  0.9-  0.5-    161107 G96  0.2-  0.8-    161108 G96  0.1-  0.4-
161107 G96  0.2-  0.0     161107 G96  0.1-  0.9-    161108 G96  0.5-  0.6-
161107 G96  0.4-  0.8-    161107 G96  0.6-  1.4+    161108 G96  0.4+  0.6-
161107 G96  1.2+  0.2-    161107 G96  0.3+  0.7-    161109 H01  0.0   0.5-
161107 926  0.3-  0.6-    161108 926  0.3-  0.1-    161109 H01  0.3-  0.2-
161107 926  0.5-  0.1+    161108 926  0.1-  0.4-    161109 H01  0.3-  0.4-
161107 926  0.3-  0.1-    161108 926  0.0   0.1-    161109 H01  0.1-  0.2-

Ephemeris:
2016 VV2                 a,e,i = 2.50, 0.60, 5                   q = 0.9971
Date    TT    R. A. (2000) Decl.     Delta      r     Elong.  Phase     V
2016 10 10    23 37 42.4 -14 00 47   0.1910  1.1687   150.6    24.8    22.5
...
2016 10 25    23 18 00.8 -07 56 32   0.1182  1.0817   135.4    40.2    21.7
...
2016 11 02    23 05 29.7 +00 53 55   0.08387 1.0457   127.8    48.6    21.1
...
2016 11 08    22 52 40.0 +14 11 18   0.06135 1.0247   122.2    54.9    20.6
2016 11 09    22 49 49.9 +17 22 37   0.05809 1.0217   121.2    56.1    20.5
2016 11 10    22 46 39.3 +20 56 04   0.05503 1.0189   120.1    57.2    20.4
...
2016 11 16    22 11 08.4 +50 45 40   0.04329 1.0055   111.5    66.2    20.1
...
2016 11 24    14 42 03.7 +78 19 36   0.05276 0.9973    99.5    77.5    20.9
...
2016 12 09    11 41 28.3 +51 04 21   0.1072  1.0126   102.0    72.1    22.3

A. U. Tomatic                (C) Copyright 2016 MPC           M.P.E.C. 2016-V79




More information about the Iaude mailing list